Weather History for KHDE - February, 2014

Change the Weather History Date:

Monday, February 17, 2014

  Actual Average Record
Temperature  
Mean Temperature 44 °F -  
Max Temperature 56 °F 42 °F 76 °F (1970)
Min Temperature 32 °F 18 °F -13 °F (1978)
Degree Days  
Heating Degree Days 21    
Moisture  
Dew Point 23 °F    
Average Humidity 48    
Maximum Humidity 87    
Minimum Humidity 19    
Precipitation  
Precipitation 0.00 in - - ()
Sea Level Pressure  
Sea Level Pressure 29.91 in    
Wind  
Wind Speed 12 mph (West)    
Max Wind Speed 25 mph    
Max Gust Speed 37 mph    
Visibility 10 miles    
Events      
Averages and records for this station are not official NWS values.
T = Trace of Precipitation, MM = Missing Value Source: NWS Daily Summary

Daily Weather History Graph

Daily Weather History Graph

Search for Another Location

Airport or City:

Trip Planner

Search our weather history database for the weather conditions in past years. The results will help you decide how hot, cold, wet, or windy it might be!

Date:

Astronomy

Feb. 17, 2014 Rise Set
Actual Time 7:28 AM CST 6:15 PM CST
Civil Twilight 7:00 AM CST 6:42 PM CST
Nautical Twilight 6:28 AM CST 7:14 PM CST
Astronomical Twilight 5:56 AM CST 7:46 PM CST
Moon 9:11 PM CST (2/17) 8:28 AM CST (2/17)
Length of Visible Light 11h 42m
Length of Day
10h 46m
Waning Gibbous, 93% of the Moon is Illuminated
Feb 17
Waning Gibbous
Feb 22
Last Quarter
Mar 1
New
Mar 8
First Quarter
Mar 16
Full

Hourly Weather History & Observations

Time (CST) Temp. Windchill Dew Point Humidity Pressure Visibility Wind Dir Wind Speed Gust Speed Precip Events Conditions
12:15 AM 39.7 °F 34.3 °F 30.4 °F 69% 29.72 in 10.0 mi SSW 8.1 mph - N/A   Mostly Cloudy
12:35 AM 40.1 °F 35.3 °F 30.9 °F 70% 29.74 in 10.0 mi SSW 6.9 mph - N/A   Overcast
12:55 AM 39.9 °F 35.8 °F 30.7 °F 70% 29.74 in 10.0 mi West 5.8 mph - N/A   Overcast
1:15 AM 40.1 °F 34.1 °F 30.7 °F 69% 29.76 in 10.0 mi SW 9.2 mph - N/A   Overcast
1:35 AM 41.2 °F 34.5 °F 31.6 °F 69% 29.76 in 10.0 mi WSW 11.5 mph - N/A   Overcast
1:55 AM 43.0 °F 36.4 °F 33.3 °F 69% 29.75 in 10.0 mi West 12.7 mph 19.6 mph N/A   Overcast
2:15 AM 42.8 °F 34.0 °F 32.9 °F 68% 29.77 in 10.0 mi West 20.7 mph 25.3 mph N/A   Scattered Clouds
2:35 AM 42.8 °F 33.3 °F 32.9 °F 68% 29.81 in 10.0 mi NNW 24.2 mph 36.8 mph N/A   Scattered Clouds
2:55 AM 41.9 °F 31.9 °F 32.0 °F 68% 29.83 in 10.0 mi NNW 25.3 mph 35.7 mph N/A   Mostly Cloudy
3:15 AM 40.1 °F 29.5 °F 32.9 °F 75% 29.86 in 10.0 mi NNW 25.3 mph 34.5 mph N/A   Light Drizzle
3:35 AM 39.6 °F 30.0 °F 32.7 °F 76% 29.87 in 10.0 mi NW 19.6 mph 24.2 mph N/A   Overcast
3:55 AM 39.7 °F 30.9 °F 32.2 °F 74% 29.89 in 10.0 mi NW 17.3 mph 26.5 mph N/A   Overcast
4:15 AM 39.6 °F 31.0 °F 32.0 °F 74% 29.90 in 10.0 mi NW 16.1 mph 23.0 mph N/A   Mostly Cloudy
4:35 AM 39.6 °F 32.1 °F 32.0 °F 74% 29.90 in 10.0 mi NNW 12.7 mph 20.7 mph N/A   Mostly Cloudy
4:55 AM 38.1 °F 30.7 °F 31.5 °F 77% 29.91 in 10.0 mi NW 11.5 mph - N/A   Scattered Clouds
5:15 AM 35.2 °F 27.6 °F 30.2 °F 82% 29.93 in 10.0 mi WNW 10.4 mph - N/A   Clear
5:35 AM 35.4 °F 27.8 °F 30.2 °F 81% 29.96 in 10.0 mi West 10.4 mph - N/A   Clear
5:55 AM 35.1 °F 26.9 °F 30.2 °F 82% 29.97 in 10.0 mi West 11.5 mph - N/A   Clear
6:15 AM 35.1 °F 27.4 °F 29.8 °F 81% 29.97 in 10.0 mi West 10.4 mph - N/A   Clear
6:35 AM 33.8 °F 26.4 °F 30.0 °F 86% 29.97 in 10.0 mi WSW 9.2 mph - N/A   Clear
6:55 AM 33.8 °F 26.4 °F 29.8 °F 85% 29.97 in 10.0 mi WSW 9.2 mph - N/A   Clear
7:15 AM 33.6 °F 25.6 °F 29.8 °F 86% 29.97 in 10.0 mi West 10.4 mph - N/A   Clear
7:35 AM 32.7 °F 23.9 °F 29.1 °F 87% 29.99 in 10.0 mi West 11.5 mph - N/A   Clear
7:55 AM 33.4 °F 24.3 °F 28.9 °F 84% 30.00 in 10.0 mi West 12.7 mph - N/A   Clear
8:15 AM 35.4 °F 27.3 °F 28.9 °F 77% 30.00 in 10.0 mi West 11.5 mph - N/A   Clear
8:35 AM 36.3 °F 28.0 °F 29.1 °F 75% 30.01 in 10.0 mi West 12.7 mph - N/A   Clear
8:55 AM 37.6 °F 29.6 °F 28.9 °F 71% 30.01 in 10.0 mi West 12.7 mph 17.3 mph N/A   Clear
9:15 AM 39.2 °F 31.2 °F 28.8 °F 66% 30.01 in 10.0 mi West 13.8 mph - N/A   Clear
9:35 AM 41.0 °F 33.5 °F 28.9 °F 62% 30.02 in 10.0 mi West 13.8 mph - N/A   Clear
9:55 AM 43.0 °F 35.4 °F 27.5 °F 54% 30.03 in 10.0 mi WNW 16.1 mph 20.7 mph N/A   Clear
10:15 AM 44.6 °F 38.4 °F 26.4 °F 49% 30.03 in 10.0 mi WNW 12.7 mph 20.7 mph N/A   Clear
10:35 AM 46.6 °F - 26.8 °F 46% 30.02 in 10.0 mi WNW 13.8 mph - N/A   Clear
10:55 AM 47.5 °F - 25.9 °F 43% 30.02 in 10.0 mi WNW 11.5 mph - N/A   Clear
11:15 AM 49.5 °F - 23.0 °F 35% 30.02 in 10.0 mi NW 18.4 mph 25.3 mph N/A   Clear
11:35 AM 50.0 °F - 21.6 °F 33% 30.01 in 10.0 mi NW 16.1 mph 20.7 mph N/A   Clear
11:55 AM 51.1 °F - 17.6 °F 27% 30.01 in 10.0 mi NW 17.3 mph 24.2 mph N/A   Clear
12:15 PM 52.0 °F - 19.0 °F 27% 30.01 in 10.0 mi NW 20.7 mph 26.5 mph N/A   Clear
12:35 PM 52.2 °F - 18.1 °F 26% 30.00 in 10.0 mi NW 16.1 mph 24.2 mph N/A   Clear
12:55 PM 53.2 °F - 17.6 °F 25% 29.99 in 10.0 mi WNW 16.1 mph 24.2 mph N/A   Clear
1:15 PM 54.5 °F - 15.8 °F 22% 29.97 in 10.0 mi WNW 16.1 mph 24.2 mph N/A   Clear
1:35 PM 54.3 °F - 12.7 °F 19% 29.96 in 10.0 mi WNW 18.4 mph 26.5 mph N/A   Clear
1:55 PM 54.9 °F - 14.7 °F 21% 29.96 in 10.0 mi NW 17.3 mph 27.6 mph N/A   Clear
2:15 PM 55.6 °F - 14.5 °F 20% 29.96 in 10.0 mi NW 18.4 mph 28.8 mph N/A   Clear
2:35 PM 55.9 °F - 16.7 °F 21% 29.96 in 10.0 mi WNW 13.8 mph 24.2 mph N/A   Clear
2:55 PM 56.5 °F - 17.4 °F 22% 29.96 in 10.0 mi WNW 13.8 mph 18.4 mph N/A   Clear
3:15 PM 56.5 °F - 17.1 °F 21% 29.95 in 10.0 mi WNW 11.5 mph - N/A   Clear
3:35 PM 56.8 °F - 15.6 °F 20% 29.94 in 10.0 mi WNW 9.2 mph - N/A   Clear
3:55 PM 55.8 °F - 16.2 °F 21% 29.94 in 10.0 mi West 6.9 mph 17.3 mph N/A   Clear
3:58 PM 55.4 °F - 17.6 °F 23% 29.94 in 10.0 mi West 6.9 mph - N/A   Clear
4:15 PM 55.6 °F - 16.5 °F 22% 29.94 in 10.0 mi West 5.8 mph - N/A   Clear
4:35 PM 55.0 °F - 17.8 °F 23% 29.93 in 10.0 mi WSW 3.5 mph - N/A   Clear
4:55 PM 54.5 °F - 18.3 °F 24% 29.93 in 10.0 mi SW 5.8 mph - N/A   Clear
5:15 PM 54.3 °F - 19.2 °F 25% 29.92 in 10.0 mi WSW 5.8 mph - N/A   Clear
5:35 PM 53.1 °F - 19.8 °F 27% 29.91 in 10.0 mi SW 5.8 mph - N/A   Clear
5:55 PM 49.8 °F - 20.3 °F 31% 29.91 in 10.0 mi SW 5.8 mph - N/A   Clear
6:15 PM 48.2 °F - 19.4 °F 32% 29.91 in 10.0 mi SW 8.1 mph - N/A   Clear
6:35 PM 45.3 °F 41.1 °F 18.3 °F 34% 29.90 in 10.0 mi SSW 8.1 mph - N/A   Clear
6:55 PM 43.7 °F 41.1 °F 17.6 °F 35% 29.90 in 10.0 mi SSW 4.6 mph - N/A   Clear
7:15 PM 44.6 °F 39.2 °F 17.4 °F 34% 29.89 in 10.0 mi SSW 10.4 mph - N/A   Clear
7:35 PM 43.9 °F 38.3 °F 17.6 °F 35% 29.88 in 10.0 mi SSW 10.4 mph - N/A   Clear
7:55 PM 44.4 °F 39.5 °F 17.4 °F 34% 29.87 in 10.0 mi SSW 9.2 mph - N/A   Clear
8:15 PM 42.4 °F 37.0 °F 17.4 °F 37% 29.87 in 10.0 mi SSW 9.2 mph - N/A   Clear
8:35 PM 39.2 °F 33.6 °F 18.5 °F 43% 29.86 in 10.0 mi SSW 8.1 mph - N/A   Clear
8:55 PM 39.6 °F 34.0 °F 18.7 °F 43% 29.86 in 10.0 mi SSW 8.1 mph - N/A   Clear
9:15 PM 41.2 °F 35.0 °F 18.7 °F 40% 29.85 in 10.0 mi SSW 10.4 mph - N/A   Clear
9:35 PM 42.4 °F 37.0 °F 16.7 °F 35% 29.85 in 10.0 mi SSW 9.2 mph - N/A   Clear
9:55 PM 44.6 °F 39.2 °F 16.3 °F 32% 29.84 in 10.0 mi SSW 10.4 mph - N/A   Clear
10:15 PM 44.8 °F 38.0 °F 15.8 °F 31% 29.83 in 10.0 mi SSW 15.0 mph 18.4 mph N/A   Clear
10:35 PM 44.8 °F 38.3 °F 15.8 °F 31% 29.83 in 10.0 mi SSW 13.8 mph 21.9 mph N/A   Clear
10:55 PM 44.1 °F 37.7 °F 16.3 °F 33% 29.82 in 10.0 mi SSW 12.7 mph 20.7 mph N/A   Clear
11:15 PM 43.7 °F 37.7 °F 16.3 °F 33% 29.81 in 10.0 mi SSW 11.5 mph 18.4 mph N/A   Clear
11:35 PM 42.1 °F 34.9 °F 16.7 °F 36% 29.80 in 10.0 mi SSW 13.8 mph - N/A   Clear
11:55 PM 41.0 °F 33.9 °F 17.4 °F 39% 29.79 in 10.0 mi SSW 12.7 mph - N/A   Clear